Terminal Aerodrome Forecast
Issued by NWS

Home | Current Version | Previous Version | Text Only | Print | Product List | Glossary On
Versions: 1 2 3 4 5 6 7 8 9 10 11 12 13 14 15 16 17 18 19 20 21 22 23 24 25 26 27 28 29 30 31 32 33 34 35
682
FTUS46 KLOX 242342
TAFLAX
TAF
KLAX 242342Z 2500/2606 26013KT P6SM FEW018 SCT050 SCT250
     FM250300 25012KT P6SM BKN020 OVC040
     FM250900 25008KT 5SM BR BKN015 OVC025
     FM251400 24007KT P6SM BKN020 BKN040
     FM252000 26015G20KT P6SM SCT030 BKN045
     FM260300 26013KT P6SM BKN040=

USA.gov is the U.S. government's official web portal to all federal, state and local government web resources and services.